Year,Month,Day,Hour,Minute,Value (Times are PST for temperature in C)
2020,04,11,13,20,12.60
2020,04,11,13,21,12.70
2020,04,11,13,22,12.60
2020,04,11,13,23,12.50
2020,04,11,13,24,12.40
2020,04,11,13,25,12.30
2020,04,11,13,26,12.20
2020,04,11,13,27,12.10
2020,04,11,13,28,12.00
2020,04,11,13,29,11.90
2020,04,11,13,30,11.90
2020,04,11,13,31,12.00
2020,04,11,13,32,12.10
2020,04,11,13,33,12.30
2020,04,11,13,34,12.40
2020,04,11,13,35,12.60
2020,04,11,13,36,12.70
2020,04,11,13,37,12.80
2020,04,11,13,38,12.90
2020,04,11,13,39,13.00
2020,04,11,13,40,13.10
2020,04,11,13,41,13.10
2020,04,11,13,42,13.10
2020,04,11,13,43,13.20
2020,04,11,13,44,13.30
2020,04,11,13,45,13.30
2020,04,11,13,46,13.20
2020,04,11,13,47,13.20
2020,04,11,13,48,13.20
2020,04,11,13,49,13.30
2020,04,11,13,50,13.30
2020,04,11,13,51,13.30
2020,04,11,13,52,13.20
2020,04,11,13,53,13.10
2020,04,11,13,54,13.00
2020,04,11,13,55,12.90
2020,04,11,13,56,12.70
2020,04,11,13,57,12.60
2020,04,11,13,58,12.50
2020,04,11,13,59,12.50
2020,04,11,14,00,12.50
2020,04,11,14,01,12.50
2020,04,11,14,02,12.60
2020,04,11,14,03,12.60
2020,04,11,14,04,12.80
2020,04,11,14,05,12.90
2020,04,11,14,06,13.00
2020,04,11,14,07,13.10
2020,04,11,14,08,13.20
2020,04,11,14,09,13.30
2020,04,11,14,10,13.40
2020,04,11,14,11,13.40
2020,04,11,14,12,13.40
2020,04,11,14,13,13.50
2020,04,11,14,14,13.50
2020,04,11,14,15,13.30
2020,04,11,14,16,13.20
2020,04,11,14,17,13.10
2020,04,11,14,18,13.20
2020,04,11,14,19,13.20
2020,04,11,14,20,13.20
2020,04,11,14,21,13.20
2020,04,11,14,22,13.20
2020,04,11,14,23,13.20
2020,04,11,14,24,13.30
2020,04,11,14,25,13.30
2020,04,11,14,26,13.40
2020,04,11,14,27,13.50
2020,04,11,14,28,13.60
2020,04,11,14,29,13.70
2020,04,11,14,30,13.90
2020,04,11,14,31,14.00
2020,04,11,14,32,14.00
2020,04,11,14,33,14.00
2020,04,11,14,34,14.00
2020,04,11,14,35,13.90
2020,04,11,14,36,13.80
2020,04,11,14,37,13.70
2020,04,11,14,38,13.60
2020,04,11,14,39,13.60
2020,04,11,14,40,13.70
2020,04,11,14,41,13.70
2020,04,11,14,42,13.70
2020,04,11,14,43,13.70
2020,04,11,14,44,13.80
2020,04,11,14,45,13.70
2020,04,11,14,46,13.70
2020,04,11,14,47,13.60
2020,04,11,14,48,13.60
2020,04,11,14,49,13.60
2020,04,11,14,50,13.50
2020,04,11,14,51,13.50
2020,04,11,14,52,13.40
2020,04,11,14,53,13.40
2020,04,11,14,54,13.40
2020,04,11,14,55,13.40
2020,04,11,14,56,13.40
2020,04,11,14,57,13.30
2020,04,11,14,58,13.30
2020,04,11,14,59,13.30
2020,04,11,15,00,13.30
2020,04,11,15,01,13.20
2020,04,11,15,02,13.30
2020,04,11,15,03,13.30
2020,04,11,15,04,13.40
2020,04,11,15,05,13.50
2020,04,11,15,06,13.70
2020,04,11,15,07,13.70
2020,04,11,15,08,13.60
2020,04,11,15,09,13.60
2020,04,11,15,10,13.70
2020,04,11,15,11,13.70
2020,04,11,15,12,13.70
2020,04,11,15,13,13.70
2020,04,11,15,14,13.80
2020,04,11,15,15,13.70
2020,04,11,15,16,13.70
2020,04,11,15,17,13.70
2020,04,11,15,18,13.80
2020,04,11,15,19,14.00
2020,04,11,15,20,14.00
2020,04,11,15,21,14.00
2020,04,11,15,22,14.00
2020,04,11,15,23,14.00
2020,04,11,15,24,14.00
2020,04,11,15,25,14.00
2020,04,11,15,26,14.00
2020,04,11,15,27,14.00
2020,04,11,15,28,13.90
2020,04,11,15,29,13.80
2020,04,11,15,30,13.70
2020,04,11,15,31,13.70
2020,04,11,15,32,13.70
2020,04,11,15,33,13.70
2020,04,11,15,34,13.60
2020,04,11,15,35,13.60
2020,04,11,15,36,13.70
2020,04,11,15,37,13.70
2020,04,11,15,38,13.90
2020,04,11,15,39,14.00
2020,04,11,15,40,14.10
2020,04,11,15,41,14.20
2020,04,11,15,42,14.20
2020,04,11,15,43,14.20
2020,04,11,15,44,14.10
2020,04,11,15,45,13.90
2020,04,11,15,46,13.90
2020,04,11,15,47,13.90
2020,04,11,15,48,13.90
2020,04,11,15,49,13.90
2020,04,11,15,50,13.90
2020,04,11,15,51,13.90
2020,04,11,15,52,13.90
2020,04,11,15,53,13.90
2020,04,11,15,54,13.90
2020,04,11,15,55,13.90
